Regional Weather Roundup
Issued by NWS Little Rock, AR

Home | Current Version | Previous Version | Graphics & Text | Print | Product List | Glossary On
Versions: 1 2 3 4 5 6 7 8 9 10 11 12 13 14 15 16 17 18 19 20 21 22 23 24 25 26 27 28 29 30 31 32 33 34 35 36 37 38 39 40 41 42 43 44 45 46 47 48 49 50
000
ASUS44 KLZK 251605
RWRLZK

WEATHER ROUNDUP FOR ARKANSAS
NATIONAL WEATHER SERVICE LITTLE ROCK AR
1100 AM CDT SAT APR 25 2015

NOTE: "FAIR" INDICATES FEW OR NO CLOUDS BELOW 12,000 FEET WITH NO
SIGNIFICANT WEATHER AND/OR OBSTRUCTIONS TO VISIBILITY.

ARZ001-003-010-029-251700-
NORTHWEST ARKANSAS

CITY           SKY/WX    TMP DP  RH WIND       PRES   REMARKS
FAYETTEVILLE   SUNNY     71  54  54 SW18G28   29.61S
FORT SMITH     SUNNY     74  55  51 W15       29.62F
HARRISON       SUNNY     73  50  44 W18G26    29.57S
BENTONVILLE    SUNNY     70  54  56 W12G18    29.62R
ROGERS         SUNNY     69  56  62 W13G25    29.61R
SILOAM SPGS    SUNNY     70  54  56 W14G23    29.63R
HIGHFILL       SUNNY     70  55  59 W14G24    29.61R
SPRINGDALE     SUNNY     70  54  56 SW12G23   29.62R
$$

ARZ004-005-016-251700-
NORTH CENTRAL ARKANSAS

CITY           SKY/WX    TMP DP  RH WIND       PRES   REMARKS
BATESVILLE     SUNNY     73  61  64 W14G22    29.59F
FLIPPIN        SUNNY     75  54  46 SW15      29.54F
MTN HOME       SUNNY     74  55  51 SW10G16   29.54F
$$

ARZ040-041-251700-
WEST CENTRAL ARKANSAS

CITY           SKY/WX    TMP DP  RH WIND       PRES   REMARKS
MENA           SUNNY     73  61  64 W10       29.67F
MOUNT IDA      MOSUNNY   73  57  57 VRB6      29.64F
$$

ARZ009-017-025-026-028-251700-
NORTHEAST ARKANSAS

CITY           SKY/WX    TMP DP  RH WIND       PRES   REMARKS
CORNING          N/A     68  63  83 SW21G26   29.57F
JONESBORO      PTSUNNY   67  62  84 SW18      29.60F
NEWPORT        MOSUNNY   70  62  75 SW16      29.61F
WALNUT RIDGE   MOSUNNY   70  59  68 SW21      29.57F
BLYTHEVILLE    PTSUNNY   68  63  84 SW14G23   29.61F
$$

ARZ022-023-033-042-044-251700-
CENTRAL ARKANSAS

CITY           SKY/WX    TMP DP  RH WIND       PRES   REMARKS
LITTLE ROCK    CLOUDY    70  61  73 W20G25    29.65R
N LITTLE ROCK  PTSUNNY   67  64  88 W8G21     29.65R
JACKSONVILLE   PTSUNNY   69  62  80 SW10      29.63F
SEARCY         PTSUNNY   68  61  78 SW10      29.62F
HOT SPRINGS    MOSUNNY   71  63  75 W13G21    29.66F
RUSSELLVILLE   SUNNY     72  60  66 VRB6      29.61F
CLINTON        FAIR      72  61  68 W7G16     29.61F
$$

ARZ036-251700-
EAST ARKANSAS

CITY           SKY/WX    TMP DP  RH WIND       PRES   REMARKS
WEST MEMPHIS   CLOUDY    67  66  97 SW6       29.63F
$$

ARZ050-053-066-070-073-251700-
SOUTHWEST ARKANSAS

CITY           SKY/WX    TMP DP  RH WIND       PRES   REMARKS
ARKADELPHIA    FAIR      72  71  96 SW8       29.68S
CAMDEN         CLOUDY    75  68  78 NE10G17   29.67F HAZE
TEXARKANA      PTSUNNY   76  69  79 SW15G26   29.67S
EL DORADO      CLOUDY    75  71  87 SW12      29.69S
DE QUEEN       SUNNY     74  61  63 W9        29.67R
$$

ARZ056-057-069-251700-
SOUTHEAST ARKANSAS

CITY           SKY/WX    TMP DP  RH WIND       PRES   REMARKS
PINE BLUFF     CLOUDY    71  67  87 SW18G25   29.65S
STUTTGART      CLOUDY    72  66  83 SW18G24   29.64S
MONTICELLO     CLOUDY    73  71  93 SW13      29.67F

$$




USA.gov is the U.S. government's official web portal to all federal, state and local government web resources and services.